Weather History for New Orleans Lakefront, LA

Change the Weather History Date:

Saturday, July 13, 2013

  Actual Average Record
Temperature  
Mean Temperature 83 °F 83 °F  
Max Temperature 91 °F 91 °F 98 °F (1991)
Min Temperature 75 °F 75 °F 67 °F (1972)
Degree Days  
Heating Degree Days 0 0  
Month to date heating degree days 0 0  
Since 1 June heating degree days 0 0  
Since 1 July heating degree days 0 0  
Cooling Degree Days 18 18  
Month to date cooling degree days 214 234  
Year to date cooling degree days 1248 1348  
Since 1 June cooling degree days 755 729  
Growing Degree Days 36 (Base 50)    
Moisture  
Dew Point 74 °F    
Average Humidity 70    
Maximum Humidity 87    
Minimum Humidity 52    
Precipitation  
Precipitation 0.00 in 0.19 in 1.62 in (1993)
Month to date precipitation 1.96 2.74  
Year to date precipitation 41.08 35.04  
Snow  
Snow 0.00 in - - ()
Month to date snowfall 0.0  
Since 1 June snowfall 0.0  
Since 1 July snowfall 0.0  
Snow Depth 0.00 in    
Sea Level Pressure  
Sea Level Pressure 29.89 in    
Wind  
Wind Speed 6 mph (NE)    
Max Wind Speed 14 mph    
Max Gust Speed 17 mph    
Visibility 9 miles    
Events      
T = Trace of Precipitation, MM = Missing Value Source: NWS Daily Summary

Daily Weather History Graph

Daily Weather History Graph

Search for Another Location

Airport:

Trip Planner

Search our weather history database for the weather conditions in past years. The results will help you decide how hot, cold, wet, or windy it might be!

Date:

Astronomy

Jul. 13, 2013 Rise Set
Actual Time 6:08 AM CDT 8:03 PM CDT
Civil Twilight 5:41 AM CDT 8:30 PM CDT
Nautical Twilight 5:08 AM CDT 9:02 PM CDT
Astronomical Twilight 4:33 AM CDT 9:37 PM CDT
Moon 10:58 AM CDT (7/13) 11:12 PM CDT (7/13)
Length of Visible Light 14h 49m
Length of Day
13h 55m
Waxing Crescent, 26% of the Moon is Illuminated
Jul 13
Waxing Crescent
Jul 15
First Quarter
Jul 22
Full
Jul 29
Last Quarter
Aug 6
New

Hourly Weather History & Observations

Time (CDT) Temp. Heat Index Dew Point Humidity Pressure Visibility Wind Dir Wind Speed Gust Speed Precip Events Conditions
12:53 AM 82.9 °F 91.8 °F 77.0 °F 82% 29.88 in 9.0 mi Calm Calm - N/A   Clear
1:53 AM 82.9 °F 91.8 °F 77.0 °F 82% 29.88 in 10.0 mi NNE 6.9 mph - N/A   Clear
2:53 AM 82.9 °F 88.0 °F 72.0 °F 69% 29.88 in 10.0 mi NNE 10.4 mph - N/A   Clear
3:53 AM 82.0 °F 86.7 °F 72.0 °F 71% 29.88 in 10.0 mi NE 8.1 mph - N/A   Clear
4:53 AM 81.0 °F 86.2 °F 73.9 °F 79% 29.88 in 10.0 mi NE 10.4 mph - N/A   Clear
5:53 AM 81.0 °F 86.2 °F 73.9 °F 79% 29.88 in 10.0 mi NE 10.4 mph - N/A   Clear
6:53 AM 81.0 °F 85.8 °F 73.0 °F 77% 29.88 in 10.0 mi ENE 8.1 mph - N/A   Clear
7:53 AM 82.0 °F 87.4 °F 73.0 °F 74% 29.91 in 10.0 mi ENE 9.2 mph - N/A   Clear
8:53 AM 82.9 °F 88.8 °F 73.0 °F 72% 29.92 in 9.0 mi ENE 10.4 mph - N/A   Clear
9:53 AM 84.0 °F 90.2 °F 73.0 °F 69% 29.92 in 9.0 mi ENE 4.6 mph - N/A   Clear
10:53 AM 86.0 °F 93.8 °F 73.9 °F 67% 29.91 in 9.0 mi NE 4.6 mph - N/A   Clear
11:53 AM 88.0 °F 98.5 °F 75.9 °F 67% 29.93 in 8.0 mi NNW 5.8 mph - N/A   Scattered Clouds
12:53 PM 88.0 °F 98.5 °F 75.9 °F 67% 29.92 in 8.0 mi NNW 6.9 mph - N/A   Scattered Clouds
1:53 PM 88.0 °F 97.5 °F 75.0 °F 65% 29.91 in 7.0 mi NW 6.9 mph - N/A   Clear
2:53 PM 89.1 °F 98.0 °F 73.9 °F 61% 29.88 in 8.0 mi NNW 6.9 mph - N/A   Clear
3:53 PM 91.0 °F 100.4 °F 73.9 °F 57% 29.87 in 8.0 mi NNW 9.2 mph - N/A   Clear
4:53 PM 89.1 °F 96.0 °F 72.0 °F 57% 29.87 in 8.0 mi NE 6.9 mph - N/A   Partly Cloudy
5:53 PM 84.9 °F 93.3 °F 75.0 °F 72% 29.86 in 6.0 mi NE 8.1 mph - N/A   Haze
6:53 PM 86.0 °F 96.9 °F 77.0 °F 74% 29.87 in 7.0 mi East 8.1 mph - N/A   Clear
7:53 PM 84.9 °F 92.1 °F 73.9 °F 69% 29.89 in 10.0 mi ESE 15.0 mph - N/A   Clear
8:53 PM 82.9 °F 89.4 °F 73.9 °F 74% 29.87 in 10.0 mi SSE 6.9 mph - N/A   Clear
9:53 PM 82.0 °F 87.9 °F 73.9 °F 76% 29.88 in 10.0 mi SW 3.5 mph - N/A   Clear
10:53 PM 81.0 °F 87.3 °F 75.9 °F 85% 29.91 in 9.0 mi ENE 18.4 mph - N/A   Partly Cloudy
11:53 PM 81.0 °F 87.3 °F 75.9 °F 85% 29.93 in 10.0 mi East 12.7 mph - N/A   Clear